Other Surface Observations
Issued by NWS Tucson, AZ

Home | Current Version | Previous Version | Text Only | Print | Product List | Glossary On
Versions: 1 2 3 4 5 6 7 8 9 10 11 12 13 14 15 16 17 18 19 20 21 22 23 24 25 26 27 28 29 30 31 32 33 34 35 36 37 38 39 40 41 42 43 44 45 46 47 48 49 50
899
SXUS55 KTWC 161915
OSOTWC

WEATHER ROUNDUP FOR SOUTHEAST ARIZONA
NATIONAL WEATHER SERVICE TUCSON AZ
1215 PM MST SAT DEC 16 2017

AZZ504>506-514-162015-
LOCATION       SKY/WX    TMP DP  RH WIND       PRES   REMARKS
TUCSON         CLOUDY    63  18  17 S8        29.83F
DAVIS-MONTHAN  CLOUDY    64  18  17 SW6       29.81F
CHILDRENS PARK N/A      N/A N/A  19 SE7               PIMA CO DEQ
ALVERNON/22ND  N/A       60 N/A N/A E4                PIMA CO DEQ
CHERRY/GLENN   N/A       59 N/A N/A E5                PIMA CO DEQ
TANGERINE      N/A       57 N/A N/A SE6               PIMA CO DEQ
CONTL RANCH    N/A       57  15  19 SE8               PIMA CO DEQ
GRANT/1ST      N/A       58  15  18 E5                PIMA CO DEQ
CRAYCROFT/22ND N/A       59  17  19 NE4               PIMA CO DEQ
GOLFLINKS/KOLB N/A       58  15  18 NE3               PIMA CO DEQ
AJO/12TH       N/A       58  17  20 SE6               PIMA CO DEQ
FAIRGROUNDS    N/A       57 N/A N/A E13               PIMA CO DEQ
SAGUARO        N/A       64  15  15 CALM              *SABINO CYN
SAN CARLOS     N/A       47  20  34 SW4               *SAN CARLOS
GREEN VALLEY   N/A       60  18  19 S16               PIMA CO DEQ
HORSE CAMP CYN N/A       49  14  24 E13G29            *ARAVAIPA CYN
RINCON MTNS    N/A       42  13  30 SW3G12            *NR MANNING CAMP
$$

AZZ509>511-162015-
LOCATION       SKY/WX    TMP DP  RH WIND       PRES   REMARKS
SAFFORD        MOSUNNY   52  20  28 SE7       29.86F
STRAY HORSE    N/A       46  -3  12 SW5G10            *
TRAIL CABIN    N/A       46  17  31 NE4               *N OF GRANVILLE
BLACK HILLS    NOT AVBL
DRY LAKE       N/A       44   9  24 S5G10             *NATANES MTNS
NOON CREEK     N/A       47  21  35 E4                *PINALENO MTNS
COLUMBINE      N/A       42 -17   7 SW6G11            *PINALENO MTNS
GUTHRIE        N/A       41  18  39 SE6G12            *SW OF GUTHRIE
$$

AZZ502-503-513-162015-
LOCATION       SKY/WX    TMP DP  RH WIND       PRES   REMARKS
NOGALES        CLOUDY    60  24  25 S18G25    29.86F
SELLS          N/A       62  15  16 S10G18            *
SASABE         N/A       59  20  22 S11G23            *ALTAR VLY
HOPKINS        N/A       44  17  33 S6G14             *SANTA RITA MTNS
CARR CYN       N/A       57  18  22 N3                *W OF HEREFORD
$$

AZZ507-508-512-162015-
LOCATION       SKY/WX    TMP DP  RH WIND       PRES   REMARKS
SIERRA VISTA   PTSUNNY   56  16  20 S5        29.87F
DOUGLAS        SUNNY     55  22  27 S15       29.88F
EMPIRE MTNS    NOT AVBL
MULESHOE RANCH N/A       54  11  18 SE7G12            *PRESERVE
HEADQUARTERS   N/A       56  20  24 SW5G16            *CHIRICAHUA MTNS
$$

.............................NOTES.............................
THIS IS AN AUTOMATED COLLECTIVE WITH MINIMAL QUALITY CONTROL.
PIMA CO DEQ SITES HAVE NONSTANDARD WIND SENSOR HEIGHTS.
PIMA CO DEQ SITES DO NOT REPORT WIND GUSTS.
* INDICATES WIND SENSORS LOCATED AT 20 FEET INSTEAD OF 33 FEET.
..............................KEY..............................
SKY/WX - SKY CONDITION/WEATHER
TMP    - TEMPERATURE IN FAHRENHEIT
DP     - DEWPOINT IN FAHRENHEIT
RH     - RELATIVE HUMIDITY IN PERCENT
WIND   - DIRECTION AND SPEED IN MILES PER HOUR (MPH)
VRB    - VARIABLE WIND DIRECTION
PRES   - MEAN SEA LEVEL PRESSURE IN INCHES OF MERCURY
         F - FALLING PRESSURE   R - RISING PRESSURE
         S - STEADY PRESSURE
VSB    - VISIBILITY IN MILES
HX     - HEAT INDEX IN FAHRENHEIT
WCI    - WIND CHILL INDEX IN FAHRENHEIT
N/A    - NOT AVAILABLE
AFB    - AIR FORCE BASE
         DAVIS-MONTHAN IS DAVIS-MONTHAN AIR FORCE BASE
CYN    - CANYON
MTNS   - MOUNTAINS
NCA    - NATIONAL CONSERVATION AREA
NR     - NEAR
VLY    - VALLEY
CONTL  - CONTINENTAL
PIMA CO DEQ - PIMA COUNTY DEPT OF ENVIRONMENTAL QUALITY



USA.gov is the U.S. government's official web portal to all federal, state and local government web resources and services.